Weather History for Thermal, CA

Change the Weather History Date:

Friday, March 22, 2013

  Actual Average Record
Temperature  
Mean Temperature 75 °F 65 °F  
Max Temperature 89 °F 82 °F 97 °F (2004)
Min Temperature 61 °F 48 °F 36 °F (1975)
Degree Days  
Heating Degree Days 0 2  
Month to date heating degree days 33 77  
Since 1 July heating degree days 1121 1142  
Cooling Degree Days 10 2  
Month to date cooling degree days 115 35  
Year to date cooling degree days 115 47  
Growing Degree Days 24 (Base 50)    
Moisture  
Dew Point 34 °F    
Average Humidity 31    
Maximum Humidity 55    
Minimum Humidity 7    
Precipitation  
Precipitation 0.00 in 0.01 in 0.45 in (1954)
Month to date precipitation 0.07 0.33  
Year to date precipitation 0.44 1.66  
Since 1 July precipitation 2.62 3.04  
Snow  
Snow 0.00 in - - ()
Month to date snowfall 0.0  
Year to date snowfall 0.0  
Since 1 July snowfall 0.0  
Snow Depth 0.00 in    
Sea Level Pressure  
Sea Level Pressure 29.70 in    
Wind  
Wind Speed 11 mph (NW)    
Max Wind Speed 22 mph    
Max Gust Speed 28 mph    
Visibility 10 miles    
Events      
T = Trace of Precipitation, MM = Missing Value Source: NWS Daily Summary

Daily Weather History Graph

Daily Weather History Graph

Search for Another Location

Airport:

Trip Planner

Search our weather history database for the weather conditions in past years. The results will help you decide how hot, cold, wet, or windy it might be!

Date:

Astronomy

Mar. 22, 2013 Rise Set
Actual Time 6:45 AM PDT 6:58 PM PDT
Civil Twilight 6:20 AM PDT 7:22 PM PDT
Nautical Twilight 5:51 AM PDT 7:51 PM PDT
Astronomical Twilight 5:21 AM PDT 8:21 PM PDT
Moon 2:40 PM PDT (3/22) 3:36 AM PDT (3/22)
Length of Visible Light 13h 02m
Length of Day
12h 12m
Waxing Gibbous, 78% of the Moon is Illuminated
Mar 22
Waxing Gibbous
Mar 27
Full
Apr 2
Last Quarter
Apr 10
New
Apr 18
First Quarter

Hourly Weather History & Observations

Time (PDT) Temp. Dew Point Humidity Pressure Visibility Wind Dir Wind Speed Gust Speed Precip Events Conditions
12:52 AM 70.0 °F 48.0 °F 46% 29.64 in 10.0 mi NNW 11.5 mph 20.7 mph N/A   Clear
1:52 AM 69.1 °F 48.0 °F 47% 29.65 in 10.0 mi NNW 12.7 mph - N/A   Clear
2:52 AM 66.9 °F 46.9 °F 49% 29.64 in 10.0 mi NNW 20.7 mph 25.3 mph N/A   Clear
3:52 AM 66.9 °F 46.0 °F 47% 29.64 in 10.0 mi WNW 11.5 mph 20.7 mph N/A   Clear
4:52 AM 64.9 °F 45.0 °F 48% 29.65 in 10.0 mi NW 16.1 mph 24.2 mph N/A   Clear
5:52 AM 63.0 °F 44.1 °F 50% 29.68 in 10.0 mi NNW 12.7 mph - N/A   Clear
6:52 AM 61.0 °F 45.0 °F 56% 29.70 in 10.0 mi North 9.2 mph - N/A   Clear
7:52 AM 64.0 °F 44.1 °F 48% 29.73 in 10.0 mi NNW 13.8 mph - N/A   Clear
8:52 AM 71.1 °F 43.0 °F 36% 29.75 in 10.0 mi NNE 6.9 mph - N/A   Clear
9:52 AM 79.0 °F 24.1 °F 13% 29.75 in 10.0 mi WNW 13.8 mph - N/A   Clear
10:52 AM 82.0 °F 21.9 °F 11% 29.75 in 10.0 mi WNW 13.8 mph 19.6 mph N/A   Clear
11:52 AM 84.0 °F 19.9 °F 9% 29.75 in 10.0 mi WNW 12.7 mph 18.4 mph N/A   Clear
12:52 PM 86.0 °F 18.0 °F 8% 29.75 in 10.0 mi West 10.4 mph 19.6 mph N/A   Clear
1:52 PM 88.0 °F 18.0 °F 8% 29.71 in 10.0 mi West 12.7 mph 19.6 mph N/A   Clear
2:52 PM 88.0 °F 17.1 °F 7% 29.71 in 10.0 mi Variable 5.8 mph - N/A   Clear
3:52 PM 87.1 °F 17.1 °F 8% 29.67 in 10.0 mi West 5.8 mph - N/A   Clear
4:52 PM 88.0 °F 19.0 °F 8% 29.65 in 10.0 mi Calm Calm - N/A   Clear
5:52 PM 88.0 °F 19.0 °F 8% 29.65 in 10.0 mi Variable 3.5 mph - N/A   Clear
6:52 PM 82.0 °F 37.9 °F 21% 29.66 in 10.0 mi NW 10.4 mph - N/A   Clear
7:52 PM 79.0 °F 37.0 °F 22% 29.68 in 10.0 mi NNW 13.8 mph - N/A   Clear
8:52 PM 77.0 °F 37.0 °F 24% 29.71 in 10.0 mi NNW 12.7 mph - N/A   Clear
9:52 PM 73.9 °F 44.1 °F 34% 29.73 in 10.0 mi NNW 15.0 mph - N/A   Clear
10:52 PM 72.0 °F 43.0 °F 35% 29.75 in 10.0 mi NNW 12.7 mph - N/A   Clear
11:52 PM 71.1 °F 44.1 °F 38% 29.78 in 10.0 mi NNW 17.3 mph 24.2 mph N/A   Clear